loading
|
Showing default

TIROS 8, 716

Orbit data source: Space-Track

TIROS 8, 716 is a payload satellite owned by GSFC (US) in LEO that was launched on Sat, 21 Dec 1963 UTC via a THOR DELTA B launch vehicle from the Air Force Western Test Range (AFWTR). Payloads include a variety of satellites, spacecraft, and rockets equipped with specific instruments for various scientific and technological missions. These include communications satellites like Starlink; space stations such as the ISS; scientific satellites like the Hubble; Earth observation satellites from companies like Planet Labs, Umbra, and HawkEye 360; GPS; miniature CubeSats for education and research; and military/defense satellites.

Loading next visibility...
Loading greatness...
TIROS 8 details
Identifier
716, 1963-054A
Orbit
LEO
Last TLE update12 hours ago
Origin
Flag of USGSFC (US)
ManufacturerRCA/East Windsor
Mission statusNon-operational
MissionCivil Weather
Bus & MotorTIROS, Unknown motor
Mass120 kg wet, 120 kg dry
Launch date (UTC)
1963-12-21 (61 years ago)
Launch vehicle
THOR DELTA B
Launch site
Air Force Western Test Range (AFWTR)
Object type
Payload
Rocket body
Debris
Radar Cross Section0.78 m², Medium (>0.1 m² and < 1m²)

Expand to show TLE details & history

TLE from 12 hours ago
0 TIROS 8
1   716U 63054A   24251.19873048  .00002383  00000-0  40929-3 0  9999
2   716  58.4938 274.7026 0027046 131.5247 228.8119 14.71530066241352
Epoch: 2024-09-07T04:46Z
Definitive object data (Epoch: 2024-09-07T04:46:10.313Z)
Latitude0.00003°
Longitude-143.6007°
Altitude670.163 km
Speed7.516 km/s
True Right ascension18h 18m 48s
True Declination0° 00' 00"
Sunlit
Object was in daylight at TLE epoch
Predictive object data (real-time)
Latitude47.96321°
Longitude-102.85305°
Altitude656.1 km
Speed7.538 km/s
Apparent Right ascension20h 48m 36s
Apparent Declination6° 42' 57"
Sunlit
Object is in full shadow
Predictive observer data (real-time)
Local Sidereal Time08:35:53
Azimuth355.663° N
Elevation-43.276°
Doppler factor1
Orbital elements
Apogee674.65 km
Perigee636.603 km
Semi-major axis7,033.763 km
Eccentricity0.0027046
Inclination58.4938°
RAAN274.7026°
Arg. of periapsis131.5247°
True anomaly228.57918°
Mean anomaly228.8119°
Eccentric anomaly228.69549°
Mean motion3.67927 °/min
BSTAR0.00040929
Period97.85 mins
No data available

TIROS 8 Visibility forecast

Observer location: 39.9160978°, -105.1181434

TIROS 8 is not visible in the next 10 days
Span
Click to sort rows by Start time (UTC) header in descending order
Start Az.
Max El. time (UTC)
Max El. Az.
Max El.
End time (UTC)
End Az.